• In Moldova, Republic
  • List of Countries
  • For 7 days
  • Water Temperature
  • Satellite Maps
  • Weather Map
  • Weather Widgets
  • user-avatar
    Login

    Hourly Weather Saurimo

    Today, 31 March, Friday

    Time Temperature Precipitation Wind Pressure Humidity
    00:00 +19°C° 0.3 mm 1 mps 671 mmHg 98%
    01:00 +17°C° 0.3 mm 0 mps 671 mmHg 98%
    02:00 +17°C° 0.1 mm 0 mps 671 mmHg 98%
    03:00 +16°C° 0.1 mm 0 mps 671 mmHg 98%
    04:00 +16°C° 0.1 mm 0 mps 670 mmHg 97%
    05:00 +19°C° 0 mm 1 mps 671 mmHg 96%
    06:00 +19°C° 0 mm 1 mps 671 mmHg 95%
    07:00 +20°C° 0 mm 1 mps 672 mmHg 93%
    08:00 +21°C° 0.9 mm 1 mps 672 mmHg 92%
    09:00 +22°C° 0.9 mm 1 mps 673 mmHg 90%
    10:00 +22°C° 0.9 mm 1 mps 673 mmHg 89%
    11:00 +22°C° 1.1 mm 1 mps 673 mmHg 90%
    12:00 +22°C° 1.1 mm 1 mps 672 mmHg 90%
    13:00 +22°C° 1.1 mm 1 mps 672 mmHg 91%
    14:00 +22°C° 0.3 mm 1 mps 671 mmHg 92%
    15:00 +22°C° 0.3 mm 1 mps 671 mmHg 92%
    16:00 +22°C° 0.3 mm 1 mps 671 mmHg 93%
    17:00 +22°C° 0 mm 1 mps 671 mmHg 95%
    18:00 +21°C° 0 mm 1 mps 671 mmHg 96%
    19:00 +20°C° 0 mm 1 mps 671 mmHg 98%
    20:00 +20°C° 0 mm 1 mps 671 mmHg 98%
    21:00 +20°C° 0 mm 1 mps 671 mmHg 98%
    22:00 +20°C° 0 mm 1 mps 671 mmHg 98%
    23:00 +20°C° 0 mm 1 mps 671 mmHg 98%

    Tomorrow, 1 April, Saturday

    Time Temperature Precipitation Wind Pressure Humidity
    00:00 +20°C° 0 mm 1 mps 671 mmHg 98%
    01:00 +19°C° 0 mm 1 mps 671 mmHg 98%
    02:00 +19°C° 0 mm 1 mps 670 mmHg 98%
    03:00 +19°C° 0 mm 1 mps 670 mmHg 99%
    04:00 +19°C° 0 mm 1 mps 670 mmHg 99%
    05:00 +19°C° 0 mm 1 mps 671 mmHg 97%
    06:00 +20°C° 0 mm 1 mps 671 mmHg 96%
    07:00 +20°C° 0 mm 2 mps 672 mmHg 94%
    08:00 +23°C° 0 mm 2 mps 672 mmHg 85%
    09:00 +25°C° 0 mm 2 mps 673 mmHg 75%
    10:00 +27°C° 0 mm 3 mps 673 mmHg 65%
    11:00 +28°C° 0.3 mm 3 mps 672 mmHg 65%
    12:00 +28°C° 0.3 mm 2 mps 672 mmHg 64%
    13:00 +29°C° 0.3 mm 2 mps 671 mmHg 63%
    14:00 +28°C° 0.6 mm 2 mps 671 mmHg 69%
    15:00 +27°C° 0.6 mm 2 mps 670 mmHg 74%
    16:00 +27°C° 0.6 mm 2 mps 670 mmHg 79%
    17:00 +25°C° 0.2 mm 2 mps 670 mmHg 85%
    18:00 +24°C° 0.2 mm 1 mps 670 mmHg 90%
    19:00 +22°C° 0.2 mm 1 mps 670 mmHg 95%
    20:00 +22°C° 0 mm 1 mps 670 mmHg 96%
    21:00 +22°C° 0 mm 1 mps 671 mmHg 96%
    22:00 +21°C° 0 mm 1 mps 671 mmHg 97%
    23:00 +21°C° 0 mm 1 mps 671 mmHg 97%

    Day after tomorrow, 2 April, Sunday

    Time Temperature Precipitation Wind Pressure Humidity
    00:00 +21°C° 0 mm 1 mps 670 mmHg 97%
    01:00 +21°C° 0 mm 1 mps 670 mmHg 97%
    02:00 +21°C° 0.1 mm 1 mps 669 mmHg 97%
    03:00 +21°C° 0.1 mm 1 mps 669 mmHg 97%
    04:00 +21°C° 0.1 mm 1 mps 669 mmHg 97%
    05:00 +21°C° 0.7 mm 1 mps 670 mmHg 96%
    06:00 +21°C° 0.7 mm 1 mps 670 mmHg 94%
    07:00 +22°C° 0.7 mm 1 mps 671 mmHg 93%
    08:00 +24°C° 0.2 mm 2 mps 671 mmHg 84%
    09:00 +26°C° 0.2 mm 2 mps 672 mmHg 76%
    10:00 +27°C° 0.2 mm 3 mps 672 mmHg 67%
    11:00 +28°C° 0.3 mm 3 mps 672 mmHg 65%
    12:00 +28°C° 0.3 mm 2 mps 671 mmHg 64%
    13:00 +29°C° 0.3 mm 2 mps 670 mmHg 62%
    14:00 +28°C° 0.4 mm 2 mps 670 mmHg 66%
    15:00 +28°C° 0.4 mm 2 mps 669 mmHg 70%
    16:00 +27°C° 0.4 mm 1 mps 669 mmHg 74%
    17:00 +26°C° 0.2 mm 1 mps 669 mmHg 80%
    18:00 +24°C° 0.2 mm 1 mps 669 mmHg 85%
    19:00 +22°C° 0.2 mm 1 mps 669 mmHg 91%
    20:00 +22°C° 1 mm 1 mps 670 mmHg 91%
    21:00 +22°C° 1 mm 1 mps 670 mmHg 91%
    22:00 +22°C° 1 mm 1 mps 671 mmHg 92%
    23:00 +22°C° 0.4 mm 1 mps 670 mmHg 92%

    3 April, Monday

    Time Temperature Precipitation Wind Pressure Humidity
    00:00 +22°C° 0.4 mm 1 mps 670 mmHg 92%
    01:00 +21°C° 0.4 mm 1 mps 669 mmHg 92%
    02:00 +21°C° 0.2 mm 1 mps 669 mmHg 93%
    03:00 +21°C° 0.2 mm 1 mps 669 mmHg 93%
    04:00 +21°C° 0.2 mm 1 mps 669 mmHg 93%
    05:00 +21°C° 0.1 mm 1 mps 670 mmHg 92%
    06:00 +21°C° 0.1 mm 1 mps 670 mmHg 92%
    07:00 +22°C° 0.1 mm 1 mps 671 mmHg 91%
    08:00 +24°C° 0.1 mm 2 mps 671 mmHg 82%
    09:00 +25°C° 0.1 mm 2 mps 672 mmHg 74%
    10:00 +27°C° 0.1 mm 2 mps 672 mmHg 65%
    11:00 +28°C° 0.2 mm 2 mps 672 mmHg 62%
    12:00 +28°C° 0.2 mm 2 mps 671 mmHg 59%
    13:00 +29°C° 0.2 mm 2 mps 670 mmHg 56%
    14:00 +28°C° 0.2 mm 1 mps 670 mmHg 63%
    15:00 +28°C° 0.2 mm 1 mps 669 mmHg 69%
    16:00 +27°C° 0.2 mm 1 mps 669 mmHg 75%
    17:00 +26°C° 0.1 mm 1 mps 669 mmHg 78%
    18:00 +24°C° 0.1 mm 1 mps 669 mmHg 82%
    19:00 +23°C° 0.1 mm 1 mps 670 mmHg 85%
    20:00 +22°C° 0 mm 1 mps 670 mmHg 86%
    21:00 +22°C° 0 mm 1 mps 670 mmHg 87%
    22:00 +22°C° 0 mm 1 mps 670 mmHg 89%
    23:00 +21°C° 0 mm 1 mps 670 mmHg 89%

    4 April, Tuesday

    Time Temperature Precipitation Wind Pressure Humidity
    00:00 +21°C° 0 mm 1 mps 669 mmHg 90%
    01:00 +20°C° 0 mm 1 mps 669 mmHg 91%
    02:00 +20°C° 0 mm 1 mps 669 mmHg 90%
    03:00 +20°C° 0 mm 1 mps 669 mmHg 89%
    04:00 +19°C° 0 mm 2 mps 669 mmHg 88%
    05:00 +19°C° 0 mm 2 mps 670 mmHg 86%
    06:00 +20°C° 0 mm 2 mps 670 mmHg 85%
    07:00 +20°C° 0 mm 2 mps 671 mmHg 83%
    08:00 +23°C° 0 mm 2 mps 671 mmHg 75%
    09:00 +26°C° 0 mm 3 mps 672 mmHg 67%
    10:00 +28°C° 0 mm 3 mps 672 mmHg 59%
    11:00 +29°C° 0.1 mm 3 mps 671 mmHg 57%
    12:00 +30°C° 0.1 mm 3 mps 670 mmHg 55%
    13:00 +30°C° 0.1 mm 3 mps 670 mmHg 53%
    14:00 +30°C° 0.2 mm 2 mps 669 mmHg 58%
    15:00 +29°C° 0.2 mm 2 mps 669 mmHg 63%
    16:00 +29°C° 0.2 mm 1 mps 669 mmHg 68%
    17:00 +27°C° 0.5 mm 1 mps 669 mmHg 74%
    18:00 +25°C° 0.5 mm 1 mps 669 mmHg 80%
    19:00 +23°C° 0.5 mm 1 mps 669 mmHg 87%
    20:00 +23°C° 0.6 mm 1 mps 669 mmHg 88%
    21:00 +22°C° 0.6 mm 1 mps 669 mmHg 90%
    22:00 +22°C° 0.6 mm 1 mps 670 mmHg 91%
    23:00 +22°C° 2.3 mm 1 mps 669 mmHg 92%

    5 April, Wednesday

    Time Temperature Precipitation Wind Pressure Humidity
    00:00 +21°C° 2.3 mm 1 mps 669 mmHg 93%
    01:00 +19°C° 2.3 mm 0 mps 669 mmHg 94%
    02:00 +21°C° 0.6 mm 1 mps 669 mmHg 94%
    03:00 +21°C° 0.6 mm 1 mps 669 mmHg 95%
    04:00 +21°C° 0.6 mm 1 mps 669 mmHg 95%
    05:00 +21°C° 0.2 mm 1 mps 670 mmHg 95%
    06:00 +21°C° 0.2 mm 1 mps 670 mmHg 94%
    07:00 +20°C° 0.2 mm 2 mps 671 mmHg 94%
    08:00 +23°C° 0.1 mm 2 mps 671 mmHg 87%
    09:00 +25°C° 0.1 mm 2 mps 671 mmHg 79%
    10:00 +27°C° 0.1 mm 2 mps 672 mmHg 71%
    11:00 +28°C° 0.1 mm 2 mps 671 mmHg 66%
    12:00 +29°C° 0.1 mm 2 mps 670 mmHg 62%
    13:00 +30°C° 0.1 mm 2 mps 670 mmHg 57%
    14:00 +29°C° 0.4 mm 2 mps 669 mmHg 62%
    15:00 +29°C° 0.4 mm 1 mps 669 mmHg 67%
    16:00 +28°C° 0.4 mm 1 mps 669 mmHg 72%
    17:00 +27°C° 1.1 mm 1 mps 669 mmHg 78%
    18:00 +25°C° 1.1 mm 1 mps 669 mmHg 83%
    19:00 +23°C° 1.1 mm 1 mps 669 mmHg 89%
    20:00 +23°C° 0.9 mm 1 mps 669 mmHg 90%
    21:00 +22°C° 0.9 mm 1 mps 669 mmHg 91%
    22:00 +22°C° 0.9 mm 1 mps 669 mmHg 92%
    23:00 +22°C° 1.5 mm 1 mps 669 mmHg 93%
    Show more